DECAYED

STARLINK-1989, 47585 (Decayed)

Orbit data source: Space-Track

STARLINK-1989, 47585 was a payload satellite owned by SpaceX/Seattle (US) in LEO that was launched on Thu, 04 Feb 2021 UTC via an FALCON 9 launch vehicle from the Air Force Eastern Test Range (AFETR). Payload-class satellites include a variety of spacecraft equipped with specific instruments for various scientific and technological missions. These include communications satellites like Starlink; space stations such as the ISS; scientific satellites like the Hubble; Earth observation satellites from companies like Planet Labs, Umbra, and HawkEye 360; GPS; miniature CubeSats for education and research; and military/defense satellites.

Not visible in the next 10 days
Identifier
47585, 2021-009AP
Orbit
Decayed
Country
Flag of USUS
Related business
Manufacturer
SpaceX/Seattle
Mission
Decayed Commercial Communications
Bus & Motor
STARLINK, Unknown motor
Mass
260 kg wet, ~248 kg dry
Launch date (UTC)
2021-02-04 (5 years ago)
Launch vehicle
FALCON 9
Launch site
Air Force Eastern Test Range (AFETR)
Object type
Payload
Rocket body
Debris
Shape & HBR
Box + 1 Pan, 10.1 m
Radar Cross Section
13.562 m², Large (>1 m²)

Expand to show TLE details & history
Last TLE update: 1 year ago

TLE from 1 year ago
0 STARLINK-1989
1 47585U 21009AP  25090.09243731  .07391639  12123-4  13678-2 0  9994
2 47585  53.0237  70.5461 0001112 251.5879 150.6896 16.31505458230363
Epoch: 2025-03-31T02:13Z
TLE epoch observation values (Epoch: 2025-03-31T02:13:06.583Z)
Latitude
32.62146°
Longitude
-122.81568°
Altitude
191.259 km
Speed
7.796 km/s
True Right ascension
06h 36m 42s
True Declination
32° 27' 07"
Sunlit
Object was in daylight at epoch
Visualization orbit readout
Latitude
Unknown
Longitude
Unknown
Altitude
Unknown
Speed
Unknown
Apparent Right ascension
Unknown
Apparent Declination
Unknown
Sunlit
N/A
Visualization observer readout
Local Sidereal Time
21:37:03
Azimuth
Unknown
Elevation
Unknown
Doppler factor
Unknown
Orbital elements
Apogee altitude
189.518 km
Perigee altitude
188.057 km
Semi-major axis
6,566.924 km
Eccentricity
0.00011
Inclination
53.0237°
RAAN
70.5461°
Arg. of periapsis
251.5879°
True anomaly
150.69584°
Mean anomaly
150.6896°
Eccentric anomaly
150.69272°
Mean motion
4.0785 °/min
Orbital period
88.27 mins
BSTAR
0.0013678
Loading maneuver chart data...
Computing Atmospheric mass density...

Documentation

Showing up to 5 results
|